TimeCST,TemperatureF,Dew PointF,Humidity,Sea Level PressureIn,VisibilityMPH,Wind Direction,Wind SpeedMPH,Gust SpeedMPH,PrecipitationIn,Events,Conditions,WindDirDegrees,DateUTC
12:53 AM,33.1,24.1,70,30.13,10.0,ENE,3.5,-,N/A,,Clear,70,2012-12-27 06:53:00
1:53 AM,32.0,24.1,73,30.13,10.0,ENE,3.5,-,N/A,,Clear,70,2012-12-27 07:53:00
2:53 AM,30.9,24.1,76,30.12,10.0,ENE,4.6,-,N/A,,Clear,70,2012-12-27 08:53:00
3:53 AM,30.9,24.1,76,30.11,10.0,ENE,3.5,-,N/A,,Clear,70,2012-12-27 09:53:00
4:50 AM,30.2,24.8,80,30.09,10.0,East,3.5,-,N/A,,Mostly Cloudy,90,2012-12-27 10:50:00
4:53 AM,32.0,25.0,75,30.09,10.0,East,3.5,-,N/A,,Mostly Cloudy,100,2012-12-27 10:53:00
5:53 AM,34.0,27.0,75,30.07,10.0,East,6.9,-,N/A,,Overcast,80,2012-12-27 11:53:00
6:19 AM,33.8,26.6,75,30.06,10.0,East,8.1,-,N/A,,Overcast,100,2012-12-27 12:19:00
6:53 AM,34.0,28.0,79,30.06,10.0,ENE,3.5,-,N/A,,Overcast,70,2012-12-27 12:53:00
7:53 AM,34.0,28.9,82,30.06,10.0,ESE,5.8,-,N/A,,Scattered Clouds,120,2012-12-27 13:53:00
8:53 AM,37.0,30.9,79,30.06,10.0,ESE,5.8,-,N/A,,Clear,110,2012-12-27 14:53:00
9:53 AM,43.0,34.0,71,30.06,10.0,ESE,3.5,-,N/A,,Partly Cloudy,120,2012-12-27 15:53:00
10:40 AM,44.6,35.6,71,30.06,10.0,East,4.6,-,N/A,,Overcast,80,2012-12-27 16:40:00
10:53 AM,45.0,35.1,68,30.06,10.0,ESE,4.6,-,N/A,,Overcast,120,2012-12-27 16:53:00
11:53 AM,46.0,36.0,68,30.03,10.0,SE,5.8,-,N/A,,Overcast,130,2012-12-27 17:53:00
12:41 PM,46.4,39.2,76,29.99,10.0,ESE,6.9,-,N/A,,Overcast,110,2012-12-27 18:41:00
12:53 PM,46.0,39.0,76,29.99,7.0,ESE,6.9,-,N/A,,Overcast,110,2012-12-27 18:53:00
1:39 PM,44.6,42.8,93,29.96,4.0,ESE,8.1,-,0.00,Rain,Light Rain,110,2012-12-27 19:39:00
1:53 PM,45.0,43.0,93,29.95,3.0,East,5.8,-,0.00,Rain,Light Rain,90,2012-12-27 19:53:00
2:35 PM,44.6,42.8,93,29.93,2.0,East,8.1,-,0.00,Rain,Light Rain,100,2012-12-27 20:35:00
2:53 PM,46.4,44.6,93,29.92,2.5,East,4.6,-,N/A,Rain,Light Rain,80,2012-12-27 20:53:00
3:02 PM,46.4,44.6,93,29.92,4.0,East,10.4,-,0.00,Rain,Light Rain,80,2012-12-27 21:02:00
3:26 PM,46.4,44.6,93,29.92,2.5,East,6.9,-,0.01,Rain,Light Rain,100,2012-12-27 21:26:00
3:53 PM,46.0,44.1,93,29.92,2.0,East,4.6,-,0.02,Rain,Light Rain,80,2012-12-27 21:53:00
4:13 PM,46.4,44.6,93,29.92,2.5,East,5.8,-,0.02,Rain,Light Rain,80,2012-12-27 22:13:00
4:53 PM,46.0,44.1,93,29.92,4.0,East,8.1,-,0.05,Rain,Light Rain,80,2012-12-27 22:53:00
5:53 PM,46.4,44.6,93,29.90,4.0,ENE,9.2,-,N/A,Rain,Light Rain,60,2012-12-27 23:53:00
6:53 PM,46.0,44.1,93,29.90,7.0,East,9.2,-,0.01,Rain,Light Rain,80,2012-12-28 00:53:00
7:53 PM,46.0,44.1,93,29.90,6.0,ENE,8.1,-,0.04,Rain,Rain,60,2012-12-28 01:53:00
8:53 PM,46.4,44.6,93,-9999,4.0,ENE,4.6,-,N/A,Rain,Light Rain,70,2012-12-28 02:53:00
9:53 PM,46.0,44.1,93,-9999,6.0,East,3.5,-,0.02,Rain,Light Rain,80,2012-12-28 03:53:00
10:25 PM,46.4,44.6,93,-9999,4.0,East,4.6,-,0.01,,Overcast,90,2012-12-28 04:25:00
10:53 PM,46.9,45.0,93,-9999,3.0,ENE,5.8,-,0.01,,Overcast,60,2012-12-28 04:53:00
11:14 PM,46.4,46.4,100,-9999,2.5,East,4.6,-,N/A,,Overcast,100,2012-12-28 05:14:00
11:31 PM,46.4,46.4,100,-9999,1.5,East,5.8,-,N/A,,Overcast,90,2012-12-28 05:31:00
11:53 PM,46.9,46.0,97,-9999,1.0,ESE,3.5,-,N/A,,Mist,110,2012-12-28 05:53:00